Regional Weather Roundup
Issued by NWS

Home | Current Version | Previous Version | Text Only | Print | Product List | Glossary Off
Versions: 1 2 3 4 5 6 7 8 9 10 11 12 13 14 15 16 17 18 19 20 21 22 23 24 25 26 27 28 29 30 31 32 33 34 35 36 37 38 39 40 41 42 43 44 45 46 47 48 49 50

000
ASUS43 KDMX 222006
RWRIA

WEATHER ROUNDUP FOR IOWA
NATIONAL WEATHER SERVICE DES MOINES IA
200 PM CST THU FEB 22 2018

NOTE: "FAIR" INDICATES FEW OR NO CLOUDS BELOW 12,000 FEET WITH NO
SIGNIFICANT WEATHER AND/OR OBSTRUCTIONS TO VISIBILITY.

* - THESE STATIONS ARE NOT NWS STATIONS...THUS NOT UNDER NWS
QUALITY CONTROL.  THEY ALSO DO NOT REPORT WEATHER SUCH
AS PRECIPITATION OR FOG.

IAZ001>003-012>014-020>022-031>034-043>046-222100-
   NORTHWEST IOWA

CITY           SKY/WX    TMP DP  RH WIND       PRES   REMARKS
CARROLL *      CLOUDY    28  27  93 SE14      30.32F FOG     WCI  17
CHEROKEE *     CLOUDY    26  24  94 SE6       30.32R FOG     WCI  19
DENISON *      MIX PCPN  27  27 100 SE8       30.32S WCI  18
LE MARS *      CLOUDY    27  23  86 E12       30.30F WCI  16
ORANGE CITY *  LGT SNOW  27  25  93 SE10      30.29S WCI  17
SHELDON *      MIX PCPN  27  25  93 SE13      30.28F WCI  16
SIOUX CITY     CLOUDY    27  23  85 SE14      30.30F WCI  16
SPENCER        LGT SNOW  28  23  81 E14       30.29F WCI  17
STORM LAKE *   MIX PCPN  25  23  93 E15       30.29F VSB 3/4 WCI  12
$$

IAZ055>058-069>071-079>083-090>094-222100-
   SOUTHWEST IOWA

CITY           SKY/WX    TMP DP  RH WIND       PRES   REMARKS
ATLANTIC *     CLOUDY    28  28 100 SE8       30.33R FOG     WCI  20
AUDUBON *      MIX PCPN  28  25  86 SE6       30.32R WCI  22
CLARINDA *     CLOUDY    32  32 100 SE5G12    30.33F FOG     WCI  27
COUNCIL BLFS * FOG       28  28 100 SE13      30.30F VSB 1   WCI  18
CRESTON *      CLOUDY    30  30 100 SE10      30.33S WCI  21
HARLAN  *      CLOUDY    28  28 100 SE9       30.35R WCI  20
LAMONI         CLOUDY    31  29  92 SE7       30.33F FOG     WCI  24
RED OAK *      CLOUDY    30  30 100 SE9       30.32F FOG     WCI  22
SHENANDOAH *   CLOUDY    30  30 100 SE7       30.31F FOG     WCI  23
$$

IAZ047>049-059>061-072>074-084-222100-
   CENTRAL IOWA

CITY           SKY/WX    TMP DP  RH WIND       PRES   REMARKS
AMES           CLOUDY    30  28  92 SE8       30.35S FOG     WCI  22
ANKENY *       CLOUDY    30  30 100 SE9       30.37R FOG     WCI  22
BOONE *        FOG       28  28 100 MISG      30.32F VSB 3/4
CHARITON *     CLOUDY    30  30 100 SE8       30.34F FOG     WCI  23
DES MOINES     FRZ DRZL  30  28  92 SE10      30.35R FOG     WCI  21
GRINNELL*      CLOUDY    32  30  92 E9        30.36F FOG     WCI  24
KNOXVILLE *    MIX PCPN  32  30  93 SE9G15    30.33S VSB 3/4 WCI  24
MARSHALLTOWN   CLOUDY    34  28  79 E15       30.33F WCI  24
NEWTON *       MIX PCPN  32  32 100 SE12      30.35S WCI  23
PELLA *        CLOUDY    31  30  95 SE6       30.37S FOG     WCI  26
PERRY *        FOG       29  28  98 SE8       30.35S VSB 1   WCI  21
$$

IAZ004>006-015-016-023>025-035-036-222100-
   NORTH CENTRAL IOWA

CITY           SKY/WX    TMP DP  RH WIND       PRES   REMARKS
ALGONA *       CLOUDY    28 N/A N/A E20       30.32F HAZE    WCI  15
CLARION *      CLOUDY    28  28 100 E12       30.33F FOG     WCI  18
ESTHERVILLE    CLOUDY    28  21  75 E17       30.31F WCI  16
FORT DODGE *   MIX PCPN  28  25  86 E9        30.33F VSB 1   WCI  20
MASON CITY     CLOUDY    28  20  71 E12       30.36F WCI  18
FOREST CITY *  FLURRIES  30  23  74 E10       30.34F WCI  21
WEBSTER CITY * LGT SNOW  28  27  93 E14       30.32S WCI  17
IOWA FALLS *   CLOUDY    32  26  79 E9        30.34F WCI  24
$$

IAZ007>011-017>019-026>030-037>042-050>054-066-222100-
   NORTHEAST IOWA

CITY           SKY/WX    TMP DP  RH WIND       PRES   REMARKS
CEDAR RAPIDS   LGT RAIN  34  30  85 E14       30.36S FOG     WCI  25
CHARLES CITY * CLOUDY    32  19  59 E14       30.37F WCI  22
CLINTON *      CLOUDY    36  30  79 E21       30.36F WCI  25
DECORAH *      PTSUNNY   32  18  55 E13       30.38F WCI  22
DUBUQUE        CLOUDY    33  23  66 E17       30.37F WCI  22
MONTICELLO *   CLOUDY    34  27  75 E10       30.37F WCI  26
OELWEIN *      CLOUDY    34  28  80 E18       30.35F WCI  23
WATERLOO       CLOUDY    33  25  72 E15       30.35F WCI  23
$$

IAZ064-065-067-068-078-222100-
   EAST CENTRAL IOWA

CITY           SKY/WX    TMP DP  RH WIND       PRES   REMARKS
DAVENPORT      CLOUDY    37  29  72 E17       30.38F WCI  27
IOWA CITY      CLOUDY    35  28  75 E10       30.38F WCI  27
MT. PLEASANT * CLOUDY    34  34 100 E8        30.36F FOG     WCI  27
MUSCATINE *    CLOUDY    37  32  81 E13       30.36F WCI  29
QUAD CITIES    CLOUDY    39  31  72 E20       30.36F WCI  29
$$

IAZ062-063-075>077-085>089-095>099-222100-
   SOUTHEAST IOWA

CITY           SKY/WX    TMP DP  RH WIND       PRES   REMARKS
BURLINGTON     CLOUDY    36  34  92 E8        30.34S FOG     WCI  30
FAIRFIELD *    CLOUDY    34  32  93 E10       30.36R FOG     WCI  26
FORT MADISON * FOG       36  36 100 E8        30.35F VSB 3/4 WCI  29
KEOKUK *       FOG       36  36 100 E7        30.34S VSB 1   WCI  30
OSKALOOSA *    LGT RAIN  32  31  96 SE8       30.36S VSB 1   WCI  25
OTTUMWA        CLOUDY    33  30  88 E8        30.35S FOG     WCI  26
WASHINGTON *   CLOUDY    34  34 100 E8        30.38S WCI  27
$$

ABBREVIATIONS USED IN REMARKS
   TC - TEMPERATURES IN CELSIUS
  WCI - WIND CHILL INDEX
   HX - HEAT INDEX
  VSB - VISIBILITY
$$





USA.gov is the U.S. government's official web portal to all federal, state and local government web resources and services.